﻿測定場所 (Monitoring sites),日付 (Measurement date),時間 (Measurement time),線量率 最大値 (max) μGy/h,線量率 最小値 (min) μGy/h,線量率 平均値 (average) μGy/h,
新宿 (Shinjuku),2021-11-21,23:01～24:00,0.0535,0.0456,0.0492,
新宿 (Shinjuku),2021-11-21,22:01～23:00,0.0538,0.0453,0.0497,
新宿 (Shinjuku),2021-11-21,21:01～22:00,0.0570,0.0470,0.0522,
新宿 (Shinjuku),2021-11-21,20:01～21:00,0.0551,0.0410,0.0459,
新宿 (Shinjuku),2021-11-21,19:01～20:00,0.0493,0.0412,0.0447,
新宿 (Shinjuku),2021-11-21,18:01～19:00,0.0481,0.0370,0.0422,
新宿 (Shinjuku),2021-11-21,17:01～18:00,0.0429,0.0364,0.0397,
新宿 (Shinjuku),2021-11-21,16:01～17:00,0.0413,0.0347,0.0378,
新宿 (Shinjuku),2021-11-21,15:01～16:00,0.0429,0.0354,0.0379,
新宿 (Shinjuku),2021-11-21,14:01～15:00,0.0397,0.0340,0.0365,
新宿 (Shinjuku),2021-11-21,13:01～14:00,0.0406,0.0342,0.0367,
新宿 (Shinjuku),2021-11-21,12:01～13:00,0.0394,0.0342,0.0366,
新宿 (Shinjuku),2021-11-21,11:01～12:00,0.0390,0.0346,0.0365,
新宿 (Shinjuku),2021-11-21,10:01～11:00,0.0396,0.0346,0.0367,
新宿 (Shinjuku),2021-11-21,09:01～10:00,0.0405,0.0350,0.0369,
新宿 (Shinjuku),2021-11-21,08:01～09:00,0.0411,0.0350,0.0372,
新宿 (Shinjuku),2021-11-21,07:01～08:00,0.0402,0.0350,0.0368,
新宿 (Shinjuku),2021-11-21,06:01～07:00,0.0410,0.0349,0.0367,
新宿 (Shinjuku),2021-11-21,05:01～06:00,0.0400,0.0349,0.0365,
新宿 (Shinjuku),2021-11-21,04:01～05:00,0.0406,0.0346,0.0365,
新宿 (Shinjuku),2021-11-21,03:01～04:00,0.0384,0.0349,0.0364,
新宿 (Shinjuku),2021-11-21,02:01～03:00,0.0398,0.0344,0.0364,
新宿 (Shinjuku),2021-11-21,01:01～02:00,0.0386,0.0346,0.0362,
新宿 (Shinjuku),2021-11-21,00:01～01:00,0.0398,0.0348,0.0366,
新宿 (Shinjuku),2021-11-20,23:01～24:00,0.0403,0.0334,0.0364,
新宿 (Shinjuku),2021-11-20,22:01～23:00,0.0390,0.0344,0.0363,
新宿 (Shinjuku),2021-11-20,21:01～22:00,0.0396,0.0337,0.0363,
新宿 (Shinjuku),2021-11-20,20:01～21:00,0.0397,0.0343,0.0361,
新宿 (Shinjuku),2021-11-20,19:01～20:00,0.0392,0.0350,0.0362,
新宿 (Shinjuku),2021-11-20,18:01～19:00,0.0391,0.0347,0.0366,
新宿 (Shinjuku),2021-11-20,17:01～18:00,0.0404,0.0351,0.0365,
新宿 (Shinjuku),2021-11-20,16:01～17:00,0.0389,0.0338,0.0364,
新宿 (Shinjuku),2021-11-20,15:01～16:00,0.0391,0.0348,0.0364,
新宿 (Shinjuku),2021-11-20,14:01～15:00,0.0396,0.0348,0.0364,
新宿 (Shinjuku),2021-11-20,13:01～14:00,0.0384,0.0335,0.0361,
新宿 (Shinjuku),2021-11-20,12:01～13:00,0.0391,0.0346,0.0367,
新宿 (Shinjuku),2021-11-20,11:01～12:00,0.0400,0.0343,0.0370,
新宿 (Shinjuku),2021-11-20,10:01～11:00,0.0411,0.0349,0.0373,
新宿 (Shinjuku),2021-11-20,09:01～10:00,0.0393,0.0350,0.0369,
新宿 (Shinjuku),2021-11-20,08:01～09:00,0.0398,0.0351,0.0369,
新宿 (Shinjuku),2021-11-20,07:01～08:00,0.0394,0.0348,0.0371,
新宿 (Shinjuku),2021-11-20,06:01～07:00,0.0405,0.0350,0.0372,
新宿 (Shinjuku),2021-11-20,05:01～06:00,0.0399,0.0357,0.0372,
新宿 (Shinjuku),2021-11-20,04:01～05:00,0.0409,0.0352,0.0372,
新宿 (Shinjuku),2021-11-20,03:01～04:00,0.0407,0.0341,0.0372,
新宿 (Shinjuku),2021-11-20,02:01～03:00,0.0402,0.0350,0.0374,
新宿 (Shinjuku),2021-11-20,01:01～02:00,0.0409,0.0353,0.0373,
新宿 (Shinjuku),2021-11-20,00:01～01:00,0.0416,0.0345,0.0372,
新宿 (Shinjuku),2021-11-19,23:01～24:00,0.0418,0.0346,0.0372,
新宿 (Shinjuku),2021-11-19,22:01～23:00,0.0399,0.0352,0.0371,
新宿 (Shinjuku),2021-11-19,21:01～22:00,0.0401,0.0346,0.0369,
新宿 (Shinjuku),2021-11-19,20:01～21:00,0.0398,0.0349,0.0367,
新宿 (Shinjuku),2021-11-19,19:01～20:00,0.0403,0.0348,0.0366,
新宿 (Shinjuku),2021-11-19,18:01～19:00,0.0412,0.0356,0.0370,
新宿 (Shinjuku),2021-11-19,17:01～18:00,0.0400,0.0353,0.0369,
新宿 (Shinjuku),2021-11-19,16:01～17:00,0.0413,0.0349,0.0365,
新宿 (Shinjuku),2021-11-19,15:01～16:00,0.0383,0.0340,0.0364,
新宿 (Shinjuku),2021-11-19,14:01～15:00,0.0393,0.0335,0.0365,
新宿 (Shinjuku),2021-11-19,13:01～14:00,0.0409,0.0344,0.0367,
新宿 (Shinjuku),2021-11-19,12:01～13:00,0.0402,0.0350,0.0371,
新宿 (Shinjuku),2021-11-19,11:01～12:00,0.0409,0.0350,0.0370,
新宿 (Shinjuku),2021-11-19,10:01～11:00,0.0403,0.0353,0.0372,
新宿 (Shinjuku),2021-11-19,09:01～10:00,0.0407,0.0358,0.0374,
新宿 (Shinjuku),2021-11-19,08:01～09:00,0.0419,0.0352,0.0378,
新宿 (Shinjuku),2021-11-19,07:01～08:00,0.0427,0.0356,0.0378,
新宿 (Shinjuku),2021-11-19,06:01～07:00,0.0416,0.0349,0.0378,
新宿 (Shinjuku),2021-11-19,05:01～06:00,0.0422,0.0355,0.0377,
新宿 (Shinjuku),2021-11-19,04:01～05:00,0.0408,0.0357,0.0376,
新宿 (Shinjuku),2021-11-19,03:01～04:00,0.0406,0.0353,0.0376,
新宿 (Shinjuku),2021-11-19,02:01～03:00,0.0430,0.0345,0.0374,
新宿 (Shinjuku),2021-11-19,01:01～02:00,0.0402,0.0351,0.0369,
新宿 (Shinjuku),2021-11-19,00:01～01:00,0.0405,0.0349,0.0368,
新宿 (Shinjuku),2021-11-18,23:01～24:00,0.0401,0.0349,0.0370,
新宿 (Shinjuku),2021-11-18,22:01～23:00,0.0395,0.0358,0.0371,
新宿 (Shinjuku),2021-11-18,21:01～22:00,0.0400,0.0345,0.0365,
新宿 (Shinjuku),2021-11-18,20:01～21:00,0.0391,0.0338,0.0365,
新宿 (Shinjuku),2021-11-18,19:01～20:00,0.0400,0.0344,0.0365,
新宿 (Shinjuku),2021-11-18,18:01～19:00,0.0400,0.0341,0.0364,
新宿 (Shinjuku),2021-11-18,17:01～18:00,0.0390,0.0351,0.0367,
新宿 (Shinjuku),2021-11-18,16:01～17:00,0.0407,0.0351,0.0369,
新宿 (Shinjuku),2021-11-18,15:01～16:00,0.0408,0.0352,0.0370,
新宿 (Shinjuku),2021-11-18,14:01～15:00,0.0399,0.0348,0.0371,
新宿 (Shinjuku),2021-11-18,13:01～14:00,0.0403,0.0347,0.0366,
新宿 (Shinjuku),2021-11-18,12:01～13:00,0.0388,0.0350,0.0366,
新宿 (Shinjuku),2021-11-18,11:01～12:00,0.0400,0.0348,0.0367,
新宿 (Shinjuku),2021-11-18,10:01～11:00,0.0403,0.0351,0.0367,
新宿 (Shinjuku),2021-11-18,09:01～10:00,0.0409,0.0347,0.0369,
新宿 (Shinjuku),2021-11-18,08:01～09:00,0.0409,0.0352,0.0371,
新宿 (Shinjuku),2021-11-18,07:01～08:00,0.0408,0.0343,0.0371,
新宿 (Shinjuku),2021-11-18,06:01～07:00,0.0415,0.0351,0.0372,
新宿 (Shinjuku),2021-11-18,05:01～06:00,0.0394,0.0352,0.0370,
新宿 (Shinjuku),2021-11-18,04:01～05:00,0.0406,0.0344,0.0372,
新宿 (Shinjuku),2021-11-18,03:01～04:00,0.0390,0.0348,0.0369,
新宿 (Shinjuku),2021-11-18,02:01～03:00,0.0419,0.0351,0.0370,
新宿 (Shinjuku),2021-11-18,01:01～02:00,0.0408,0.0348,0.0366,
新宿 (Shinjuku),2021-11-18,00:01～01:00,0.0394,0.0344,0.0364,
新宿 (Shinjuku),2021-11-17,23:01～24:00,0.0406,0.0341,0.0364,
新宿 (Shinjuku),2021-11-17,22:01～23:00,0.0394,0.0344,0.0363,
新宿 (Shinjuku),2021-11-17,21:01～22:00,0.0394,0.0340,0.0362,
新宿 (Shinjuku),2021-11-17,20:01～21:00,0.0389,0.0340,0.0363,
新宿 (Shinjuku),2021-11-17,19:01～20:00,0.0388,0.0341,0.0361,
新宿 (Shinjuku),2021-11-17,18:01～19:00,0.0390,0.0339,0.0362,
新宿 (Shinjuku),2021-11-17,17:01～18:00,0.0382,0.0336,0.0362,
新宿 (Shinjuku),2021-11-17,16:01～17:00,0.0401,0.0342,0.0364,
新宿 (Shinjuku),2021-11-17,15:01～16:00,0.0394,0.0338,0.0362,
新宿 (Shinjuku),2021-11-17,14:01～15:00,0.0392,0.0340,0.0362,
新宿 (Shinjuku),2021-11-17,13:01～14:00,0.0393,0.0336,0.0364,
新宿 (Shinjuku),2021-11-17,12:01～13:00,0.0396,0.0344,0.0362,
新宿 (Shinjuku),2021-11-17,11:01～12:00,0.0395,0.0340,0.0364,
新宿 (Shinjuku),2021-11-17,10:01～11:00,0.0395,0.0344,0.0365,
新宿 (Shinjuku),2021-11-17,09:01～10:00,0.0414,0.0344,0.0368,
新宿 (Shinjuku),2021-11-17,08:01～09:00,0.0407,0.0348,0.0369,
新宿 (Shinjuku),2021-11-17,07:01～08:00,0.0395,0.0351,0.0369,
新宿 (Shinjuku),2021-11-17,06:01～07:00,0.0411,0.0348,0.0368,
新宿 (Shinjuku),2021-11-17,05:01～06:00,0.0394,0.0352,0.0368,
新宿 (Shinjuku),2021-11-17,04:01～05:00,0.0397,0.0340,0.0367,
新宿 (Shinjuku),2021-11-17,03:01～04:00,0.0407,0.0344,0.0368,
新宿 (Shinjuku),2021-11-17,02:01～03:00,0.0400,0.0341,0.0365,
新宿 (Shinjuku),2021-11-17,01:01～02:00,0.0395,0.0351,0.0364,
新宿 (Shinjuku),2021-11-17,00:01～01:00,0.0406,0.0350,0.0365,
新宿 (Shinjuku),2021-11-16,23:01～24:00,0.0403,0.0340,0.0365,
新宿 (Shinjuku),2021-11-16,22:01～23:00,0.0397,0.0342,0.0364,
新宿 (Shinjuku),2021-11-16,21:01～22:00,0.0405,0.0345,0.0366,
新宿 (Shinjuku),2021-11-16,20:01～21:00,0.0404,0.0338,0.0365,
新宿 (Shinjuku),2021-11-16,19:01～20:00,0.0393,0.0345,0.0365,
新宿 (Shinjuku),2021-11-16,18:01～19:00,0.0412,0.0341,0.0363,
新宿 (Shinjuku),2021-11-16,17:01～18:00,0.0387,0.0343,0.0365,
新宿 (Shinjuku),2021-11-16,16:01～17:00,0.0384,0.0348,0.0363,
新宿 (Shinjuku),2021-11-16,15:01～16:00,0.0387,0.0346,0.0363,
新宿 (Shinjuku),2021-11-16,14:01～15:00,0.0404,0.0342,0.0366,
新宿 (Shinjuku),2021-11-16,13:01～14:00,0.0416,0.0345,0.0367,
新宿 (Shinjuku),2021-11-16,12:01～13:00,0.0394,0.0345,0.0363,
新宿 (Shinjuku),2021-11-16,11:01～12:00,0.0395,0.0338,0.0364,
新宿 (Shinjuku),2021-11-16,10:01～11:00,0.0386,0.0339,0.0363,
新宿 (Shinjuku),2021-11-16,09:01～10:00,0.0408,0.0348,0.0367,
新宿 (Shinjuku),2021-11-16,08:01～09:00,0.0398,0.0349,0.0368,
新宿 (Shinjuku),2021-11-16,07:01～08:00,0.0397,0.0339,0.0365,
新宿 (Shinjuku),2021-11-16,06:01～07:00,0.0396,0.0353,0.0372,
新宿 (Shinjuku),2021-11-16,05:01～06:00,0.0407,0.0345,0.0367,
新宿 (Shinjuku),2021-11-16,04:01～05:00,0.0414,0.0345,0.0367,
新宿 (Shinjuku),2021-11-16,03:01～04:00,0.0401,0.0349,0.0370,
新宿 (Shinjuku),2021-11-16,02:01～03:00,0.0397,0.0352,0.0369,
新宿 (Shinjuku),2021-11-16,01:01～02:00,0.0401,0.0344,0.0368,
新宿 (Shinjuku),2021-11-16,00:01～01:00,0.0400,0.0344,0.0366,
新宿 (Shinjuku),2021-11-15,23:01～24:00,0.0406,0.0343,0.0364,
新宿 (Shinjuku),2021-11-15,22:01～23:00,0.0385,0.0342,0.0365,
新宿 (Shinjuku),2021-11-15,21:01～22:00,0.0395,0.0343,0.0363,
新宿 (Shinjuku),2021-11-15,20:01～21:00,0.0390,0.0336,0.0362,
新宿 (Shinjuku),2021-11-15,19:01～20:00,0.0381,0.0343,0.0360,
新宿 (Shinjuku),2021-11-15,18:01～19:00,0.0401,0.0341,0.0361,
新宿 (Shinjuku),2021-11-15,17:01～18:00,0.0376,0.0338,0.0364,
新宿 (Shinjuku),2021-11-15,16:01～17:00,0.0387,0.0341,0.0363,
新宿 (Shinjuku),2021-11-15,15:01～16:00,0.0405,0.0342,0.0364,
新宿 (Shinjuku),2021-11-15,14:01～15:00,0.0402,0.0343,0.0365,
新宿 (Shinjuku),2021-11-15,13:01～14:00,0.0389,0.0344,0.0362,
新宿 (Shinjuku),2021-11-15,12:01～13:00,0.0393,0.0347,0.0362,
新宿 (Shinjuku),2021-11-15,11:01～12:00,0.0391,0.0338,0.0364,
新宿 (Shinjuku),2021-11-15,10:01～11:00,0.0403,0.0346,0.0365,
新宿 (Shinjuku),2021-11-15,09:01～10:00,0.0408,0.0348,0.0370,
新宿 (Shinjuku),2021-11-15,08:01～09:00,0.0418,0.0345,0.0372,
新宿 (Shinjuku),2021-11-15,07:01～08:00,0.0394,0.0347,0.0367,
新宿 (Shinjuku),2021-11-15,06:01～07:00,0.0403,0.0346,0.0370,
新宿 (Shinjuku),2021-11-15,05:01～06:00,0.0391,0.0352,0.0370,
新宿 (Shinjuku),2021-11-15,04:01～05:00,0.0414,0.0350,0.0370,
新宿 (Shinjuku),2021-11-15,03:01～04:00,0.0417,0.0351,0.0375,
新宿 (Shinjuku),2021-11-15,02:01～03:00,0.0425,0.0353,0.0375,
新宿 (Shinjuku),2021-11-15,01:01～02:00,0.0414,0.0345,0.0372,
新宿 (Shinjuku),2021-11-15,00:01～01:00,0.0398,0.0347,0.0368,
